Southern Pines, NC

2:11 PM EDT on October 20, 2017 (GMT -0400)
Moore County

Weather History for KSOP - June, 2013

Change the Weather History Date:

Sunday, June 16, 2013

  Actual Average Record
Temperature  
Mean Temperature 76 °F -  
Max Temperature 87 °F 83 °F 103 °F (1981)
Min Temperature 64 °F 64 °F 50 °F (2012)
Cooling Degree Days 10    
Growing Degree Days 26 (Base 50)    
Moisture  
Dew Point 59 °F    
Average Humidity 55    
Maximum Humidity 69    
Minimum Humidity 43    
Precipitation  
Precipitation 0.00 in - - ()
Sea Level Pressure  
Sea Level Pressure 30.10 in    
Wind  
Wind Speed 10 mph (SW)    
Max Wind Speed 15 mph    
Max Gust Speed 22 mph    
Visibility 10 miles    
Events      
Averages and records for this station are not official NWS values.
T = Trace of Precipitation, MM = Missing Value Source: NWS Daily Summary

Daily Weather History Graph

Daily Weather History Graph

Search for Another Location

Airport or City:

Trip Planner

Search our weather history database for the weather conditions in past years. The results will help you decide how hot, cold, wet, or windy it might be!

Date:

Astronomy

Jun. 16, 2013 Rise Set
Actual Time 6:02 AM EDT 8:34 PM EDT
Civil Twilight 5:32 AM EDT 9:04 PM EDT
Nautical Twilight 4:55 AM EDT 9:40 PM EDT
Astronomical Twilight 4:14 AM EDT 10:21 PM EDT
Moon 1:21 PM EDT (6/16) 12:52 AM EDT (6/16)
Length of Visible Light 15h 31m
Length of Day
14h 31m
Waxing Crescent, 49% of the Moon is Illuminated
Jun 16
Waxing Crescent
Jun 16
First Quarter
Jun 23
Full
Jun 30
Last Quarter
Jul 8
New

Hourly Weather History & Observations

Time (EDT) Temp. Heat Index Dew Point Humidity Pressure Visibility Wind Dir Wind Speed Gust Speed Precip Events Conditions
12:15 AM 71.6 °F - 53.6 °F 53% 30.12 in 10.0 mi SW 11.5 mph - N/A   Clear
12:35 AM 69.8 °F - 51.8 °F 53% 30.12 in 10.0 mi SW 10.4 mph - N/A   Clear
12:55 AM 69.8 °F - 51.8 °F 53% 30.13 in 10.0 mi SW 11.5 mph - N/A   Clear
1:15 AM 69.8 °F - 51.8 °F 53% 30.13 in 10.0 mi SW 11.5 mph - N/A   Clear
1:35 AM 69.8 °F - 51.8 °F 53% 30.13 in 10.0 mi SW 9.2 mph - N/A   Clear
1:55 AM 68.0 °F - 51.8 °F 56% 30.13 in 10.0 mi WSW 8.1 mph - N/A   Clear
2:15 AM 68.0 °F - 51.8 °F 56% 30.13 in 10.0 mi SW 12.7 mph - N/A   Clear
2:35 AM 68.0 °F - 51.8 °F 56% 30.12 in 10.0 mi WSW 9.2 mph - N/A   Clear
2:55 AM 68.0 °F - 51.8 °F 56% 30.12 in 10.0 mi WSW 11.5 mph 17.3 mph N/A   Clear
3:15 AM 68.0 °F - 51.8 °F 56% 30.11 in 10.0 mi WSW 10.4 mph - N/A   Clear
3:35 AM 66.2 °F - 53.6 °F 64% 30.11 in 10.0 mi WSW 11.5 mph 16.1 mph N/A   Clear
3:55 AM 66.2 °F - 53.6 °F 64% 30.11 in 10.0 mi WSW 8.1 mph - N/A   Clear
4:15 AM 66.2 °F - 53.6 °F 64% 30.11 in 10.0 mi SW 11.5 mph - N/A   Clear
4:35 AM 66.2 °F - 53.6 °F 64% 30.11 in 10.0 mi WSW 9.2 mph - N/A   Clear
4:55 AM 66.2 °F - 53.6 °F 64% 30.11 in 10.0 mi WSW 10.4 mph - N/A   Clear
5:15 AM 66.2 °F - 53.6 °F 64% 30.11 in 10.0 mi WSW 10.4 mph - N/A   Clear
5:35 AM 66.2 °F - 53.6 °F 64% 30.13 in 10.0 mi WSW 5.8 mph - N/A   Clear
5:55 AM 66.2 °F - 53.6 °F 64% 30.13 in 10.0 mi WSW 5.8 mph - N/A   Clear
6:15 AM 64.4 °F - 53.6 °F 68% 30.14 in 9.0 mi WSW 6.9 mph - N/A   Clear
6:35 AM 66.2 °F - 53.6 °F 64% 30.14 in 10.0 mi WSW 9.2 mph - N/A   Clear
6:55 AM 66.2 °F - 55.4 °F 68% 30.14 in 10.0 mi WSW 8.1 mph - N/A   Clear
7:15 AM 66.2 °F - 55.4 °F 68% 30.14 in 10.0 mi WSW 9.2 mph - N/A   Clear
7:35 AM 68.0 °F - 55.4 °F 64% 30.15 in 10.0 mi WSW 10.4 mph - N/A   Clear
7:55 AM 69.8 °F - 55.4 °F 60% 30.16 in 10.0 mi WSW 9.2 mph 16.1 mph N/A   Clear
8:15 AM 71.6 °F - 55.4 °F 57% 30.16 in 10.0 mi WSW 8.1 mph - N/A   Partly Cloudy
8:35 AM 73.4 °F - 57.2 °F 57% 30.16 in 10.0 mi WSW 10.4 mph 17.3 mph N/A   Partly Cloudy
8:55 AM 73.4 °F - 57.2 °F 57% 30.16 in 10.0 mi WSW 8.1 mph 16.1 mph N/A   Partly Cloudy
9:15 AM 75.2 °F - 57.2 °F 53% 30.17 in 10.0 mi WSW 9.2 mph - N/A   Partly Cloudy
9:35 AM 75.2 °F - 59.0 °F 57% 30.17 in 10.0 mi WSW 10.4 mph 18.4 mph N/A   Mostly Cloudy
9:55 AM 78.8 °F - 60.8 °F 54% 30.16 in 10.0 mi WSW 11.5 mph 18.4 mph N/A   Scattered Clouds
10:15 AM 78.8 °F - 60.8 °F 54% 30.15 in 10.0 mi West 9.2 mph - N/A   Clear
10:35 AM 80.6 °F 81.8 °F 62.6 °F 54% 30.14 in 10.0 mi WSW 8.1 mph - N/A   Clear
10:55 AM 80.6 °F 81.8 °F 62.6 °F 54% 30.14 in 10.0 mi West 8.1 mph - N/A   Clear
11:15 AM 82.4 °F 83.4 °F 62.6 °F 51% 30.13 in 10.0 mi WSW 12.7 mph 21.9 mph N/A   Clear
11:35 AM 82.4 °F 83.4 °F 62.6 °F 51% 30.13 in 10.0 mi WSW 12.7 mph 19.6 mph N/A   Clear
11:55 AM 82.4 °F 83.4 °F 62.6 °F 51% 30.12 in 10.0 mi SW 12.7 mph 20.7 mph N/A   Clear
12:15 PM 84.2 °F 85.6 °F 64.4 °F 51% 30.12 in 10.0 mi SW 15.0 mph 20.7 mph N/A   Partly Cloudy
12:35 PM 84.2 °F 85.6 °F 64.4 °F 51% 30.12 in 10.0 mi WSW 11.5 mph 19.6 mph N/A   Mostly Cloudy
12:55 PM 84.2 °F 85.0 °F 62.6 °F 48% 30.11 in 10.0 mi WSW 10.4 mph 16.1 mph N/A   Overcast
1:15 PM 84.2 °F 85.6 °F 64.4 °F 51% 30.10 in 10.0 mi WSW 12.7 mph 17.3 mph N/A   Unknown
1:35 PM 84.2 °F 85.0 °F 62.6 °F 48% 30.09 in 10.0 mi WSW 12.7 mph - N/A   Overcast
1:55 PM 84.2 °F 85.6 °F 64.4 °F 51% 30.08 in 10.0 mi West 10.4 mph 16.1 mph N/A   Mostly Cloudy
2:15 PM 84.2 °F 85.0 °F 62.6 °F 48% 30.08 in 10.0 mi West 9.2 mph 17.3 mph N/A   Mostly Cloudy
2:35 PM 84.2 °F 85.0 °F 62.6 °F 48% 30.08 in 10.0 mi WSW 12.7 mph 17.3 mph N/A   Mostly Cloudy
2:55 PM 86.0 °F 86.6 °F 62.6 °F 45% 30.07 in 10.0 mi WSW 10.4 mph 17.3 mph N/A   Mostly Cloudy
3:15 PM 86.0 °F 86.6 °F 62.6 °F 45% 30.06 in 10.0 mi WSW 11.5 mph 17.3 mph N/A   Partly Cloudy
3:35 PM 87.8 °F 88.5 °F 62.6 °F 43% 30.06 in 10.0 mi SW 12.7 mph - N/A   Partly Cloudy
3:55 PM 87.8 °F 88.5 °F 62.6 °F 43% 30.06 in 10.0 mi WSW 10.4 mph - N/A   Scattered Clouds
4:15 PM 87.8 °F 88.5 °F 62.6 °F 43% 30.05 in 10.0 mi WSW 11.5 mph - N/A   Mostly Cloudy
4:35 PM 87.8 °F 88.5 °F 62.6 °F 43% 30.05 in 10.0 mi WSW 8.1 mph - N/A   Mostly Cloudy
4:55 PM 87.8 °F 88.5 °F 62.6 °F 43% 30.04 in 10.0 mi WNW 6.9 mph - N/A   Mostly Cloudy
5:15 PM 86.0 °F 86.1 °F 60.8 °F 43% 30.05 in 10.0 mi WSW 6.9 mph - N/A   Scattered Clouds
5:35 PM 86.0 °F 86.6 °F 62.6 °F 45% 30.05 in 10.0 mi WSW 9.2 mph 16.1 mph N/A   Scattered Clouds
5:55 PM 86.0 °F 86.6 °F 62.6 °F 45% 30.04 in 10.0 mi WSW 11.5 mph - N/A   Partly Cloudy
6:15 PM 84.2 °F 85.0 °F 62.6 °F 48% 30.04 in 10.0 mi SW 9.2 mph - N/A   Clear
6:35 PM 84.2 °F 85.0 °F 62.6 °F 48% 30.04 in 10.0 mi WSW 11.5 mph - N/A   Clear
6:55 PM 84.2 °F 85.0 °F 62.6 °F 48% 30.05 in 10.0 mi WSW 8.1 mph - N/A   Clear
7:15 PM 84.2 °F 85.0 °F 62.6 °F 48% 30.04 in 10.0 mi SW 10.4 mph - N/A   Clear
7:35 PM 82.4 °F 83.4 °F 62.6 °F 51% 30.04 in 10.0 mi SSW 12.7 mph 16.1 mph N/A   Clear
7:55 PM 82.4 °F 83.4 °F 62.6 °F 51% 30.04 in 10.0 mi SSW 10.4 mph - N/A   Clear
8:15 PM 80.6 °F 81.8 °F 62.6 °F 54% 30.04 in 10.0 mi SSW 6.9 mph - N/A   Clear
8:35 PM 78.8 °F - 62.6 °F 57% 30.04 in 10.0 mi SSW 8.1 mph - N/A   Clear
8:55 PM 78.8 °F - 62.6 °F 57% 30.04 in 10.0 mi SSW 9.2 mph - N/A   Clear
9:15 PM 77.0 °F - 62.6 °F 61% 30.04 in 10.0 mi SSW 6.9 mph - N/A   Clear
9:35 PM 77.0 °F - 62.6 °F 61% 30.04 in 10.0 mi SSW 8.1 mph - N/A   Clear
9:55 PM 77.0 °F - 62.6 °F 61% 30.05 in 10.0 mi SSW 8.1 mph - N/A   Clear
10:15 PM 77.0 °F - 62.6 °F 61% 30.06 in 10.0 mi SSW 9.2 mph - N/A   Clear
10:35 PM 75.2 °F - 62.6 °F 65% 30.07 in 10.0 mi SW 8.1 mph - N/A   Clear
10:55 PM 75.2 °F - 62.6 °F 65% 30.06 in 10.0 mi SSW 9.2 mph - N/A   Clear
11:15 PM 75.2 °F - 62.6 °F 65% 30.06 in 10.0 mi SSW 6.9 mph - N/A   Clear
11:35 PM 75.2 °F - 62.6 °F 65% 30.07 in 10.0 mi SSW 9.2 mph - N/A   Clear
11:55 PM 73.4 °F - 62.6 °F 69% 30.07 in 10.0 mi SSW 8.1 mph - N/A   Clear